KC5AEE Weather Reports


time (UTC)temp
C
wind
direction
speed
KPH
gust
KPH
rain 1hr
cm
rain 24hr
cm
rain mn
cm
humidity
%
barometer
mb
20260506144715 5 360 22.5 45.1 0.00 0.28 0.00 70 1017.8
20260506143220 5 360 20.9 38.6 0.00 0.28 0.00 72 1017.5
20260506141717 5 360 17.7 30.6 0.00 0.28 0.00 74 1017.2
20260506140220 4 360 17.7 38.6 0.00 0.28 0.00 77 1017.3
20260506134715 3 360 17.7 32.2 0.00 0.28 0.00 78 1017.1
20260506133220 3 360 19.3 37.0 0.00 0.28 0.00 79 1017.4
20260506130220 2 360 14.5 30.6 0.00 0.28 0.00 85 1017.3
20260506124718 2 360 12.9 24.1 0.00 0.28 0.00 85 1017.0
20260506123216 2 360 11.3 20.9 0.00 0.28 0.00 86 1016.3
20260506121715 1 360 8.0 19.3 0.00 0.28 0.00 87 1016.4
20260506120220 1 360 6.4 12.9 0.00 0.28 0.00 87 1016.4
20260506114717 2 360 6.4 12.9 0.00 0.28 0.00 85 1016.5
20260506113217 2 360 6.4 12.9 0.00 0.28 0.00 85 1016.6
20260506111717 2 360 6.4 12.9 0.00 0.28 0.00 85 1016.6
20260506110221 2 360 6.4 12.9 0.00 0.28 0.00 85 1016.4
20260506104715 2 360 4.8 9.7 0.00 0.28 0.00 85 1016.2
20260506103218 2 360 3.2 8.0 0.00 0.28 0.00 84 1016.2
20260506101715 2 360 3.2 6.4 0.00 0.28 0.00 84 1016.1
20260506100216 2 360 4.8 8.0 0.00 0.28 0.00 84 1016.1
20260506094717 3 360 4.8 9.7 0.00 0.28 0.00 85 1016.1
20260506093217 3 360 4.8 9.7 0.00 0.28 0.00 86 1016.1
20260506091717 3 360 4.8 8.0 0.00 0.28 0.00 86 1016.1
20260506090222 3 360 3.2 8.0 0.00 0.28 0.00 85 1015.9
20260506084719 3 360 4.8 12.9 0.00 0.28 0.00 82 1016.0
20260506081717 5 360 4.8 9.7 0.00 0.28 0.00 77 1016.3
20260506073216 5 360 3.2 6.4 0.00 0.28 0.00 81 1016.5
20260506071716 5 360 3.2 6.4 0.00 0.28 0.00 82 1016.3
20260506070219 5 360 1.6 4.8 0.00 0.28 0.00 84 1016.3
20260506061716 5 360 1.6 6.4 0.03 0.28 0.00 87 1016.3
20260506060226 5 360 4.8 9.7 0.05 0.28 0.00 87 1016.1
20260506050222 5 360 3.2 8.0 0.20 0.23 0.23 88 1016.3
20260506044719 5 360 1.6 9.7 0.18 0.20 0.20 89 1016.3
20260506043219 4 360 6.4 20.9 0.10 0.13 0.13 88 1015.9
20260506041719 4 360 8.0 22.5 0.05 0.08 0.08 86 1016.1
20260506040222 5 360 12.9 25.7 0.00 0.03 0.03 83 1015.8
20260506034719 6 360 12.9 30.6 0.00 0.03 0.03 81 1015.8
20260506033222 6 360 12.9 29.0 0.00 0.03 0.03 81 1015.4
20260506031721 6 360 16.1 30.6 0.00 0.03 0.03 79 1014.8
20260506024721 8 360 11.3 29.0 0.00 0.03 0.03 69 1014.4
20260506021720 9 360 4.8 9.7 0.00 0.03 0.03 65 1013.8
20260506014720 10 360 8.0 17.7 0.00 0.03 0.03 62 1013.3
20260506011718 10 360 9.7 22.5 0.00 0.03 0.03 60 1012.8
20260506010223 10 360 12.9 22.5 0.00 0.03 0.03 59 1013.2
20260506003222 11 360 12.9 22.5 0.00 0.03 0.03 55 1012.9
20260506000219 12 360 11.3 24.1 0.00 0.03 0.03 51 1012.8
20260505234720 12 360 12.9 24.1 0.00 0.03 0.03 52 1012.8
20260505233219 12 360 14.5 24.1 0.00 0.03 0.03 54 1012.8
20260505230223 11 360 12.9 20.9 0.00 0.03 0.03 61 1012.9
20260505224719 11 360 12.9 19.3 0.00 0.03 0.03 63 1013.0
20260505223217 10 360 22.5 38.6 0.00 0.03 0.03 65 1013.4
20260505220215 11 360 20.9 32.2 0.00 0.03 0.03 61 1013.4
20260505214720 12 360 24.1 37.0 0.00 0.03 0.03 58 1013.4
20260505213216 13 360 19.3 35.4 0.00 0.03 0.03 55 1013.4
20260505211721 12 360 24.1 40.2 0.00 0.03 0.03 56 1013.6
20260505204715 12 360 20.9 37.0 0.00 0.03 0.03 59 1013.6
20260505201719 11 360 22.5 37.0 0.00 0.03 0.03 64 1014.0
20260505200223 11 360 19.3 30.6 0.03 0.03 0.03 66 1013.9
20260505193223 10 360 16.1 32.2 0.03 0.03 0.03 80 1014.1
20260505191718 9 360 17.7 27.4 0.03 0.03 0.03 82 1014.3
20260505190223 10 360 20.9 45.1 0.00 0.00 0.00 72 1014.8
20260505183218 13 360 14.5 25.7 0.00 0.00 0.00 53 1014.3
20260505181717 13 360 14.5 29.0 0.00 0.00 0.00 53 1014.4
20260505180220 13 360 14.5 25.7 0.00 0.00 0.00 52 1014.5
20260505174720 13 360 11.3 22.5 0.00 0.00 0.00 51 1014.5
20260505171718 12 360 6.4 17.7 0.00 0.00 0.00 53 1014.8
20260505170225 11 360 1.6 8.0 0.00 0.00 0.00 57 1014.8
20260505164720 10 360 4.8 14.5 0.00 0.00 0.00 58 1014.9
20260505163219 9 360 4.8 12.9 0.00 0.00 0.00 63 1015.0
20260505161720 9 360 4.8 9.7 0.00 0.00 0.00 63 1015.2
20260505160222 9 360 4.8 14.5 0.00 0.00 0.00 60 1015.4
20260505153217 8 360 4.8 12.9 0.00 0.00 0.00 62 1015.5
20260505151717 8 360 4.8 9.7 0.00 0.00 0.00 63 1015.5